Location: Unspecified
(50.7693°N, 0.0000°E)
Time: 05:18:24
(UTC+00:00)

Transit 4A - Pass Details

Date: 28 June 2019
Orbit: 863 x 981 km, 66.8° (Epoch: 17 August)

Event Time Altitude Azimuth Distance (km) Brightness Sun altitude
Rises 15:22:04 0° 321° (NW) 3,693 11.2 43.0°
Reaches altitude 10° 15:24:40 10° 320° (NW) 2,737 10.7 42.6°
Maximum altitude 15:31:02 71° 238° (WSW) 1,021 9.4 41.6°
Drops below altitude 10° 15:37:14 10° 156° (SSE) 2,663 10.3 40.7°
Sets 15:39:44 0° 154° (SSE) 3,587 10.9 40.3°
